Home > Weather > San Marino > Past weeks

Flag for San Marino Weather for the Past 2 Weeks in San Marino, San Marino

Now
45 °F

Passing clouds.


Feels Like: 45 °F
Forecast: 34 / 48 °F
Wind: 2 mph from Southeast

Location: Rimini Airport

Current Time: Feb 12, 2016 at 7:19:03 AM

Latest Report: Feb 12, 2016 at 6:15 AM


Visibility: N/A

Pressure: 29.71 "Hg (27.39 "Hg at 666m altitude)

Humidity: 93%

Dew point: 43 °F

Location of San MarinoLocation

Historic Weather in San Marino — Graph

°F

San Marino Temperature Yesterday

Maximum temperature yesterday: 52 °F (at 1:15 PM)
Minimum temperature yesterday: 36 °F (at 7:15 AM)
Average temperature yesterday: 44 °F

High & Low Weather Summary for the Past Weeks

 TemperatureHumidityPressure
High64 °F (Jan 31, 12:15 PM)100% (Jan 28, 5:45 AM)30.48 "Hg (Jan 28, 5:45 AM)
Low32 °F (Feb 5, 5:15 AM)4% (Feb 7, 4:45 AM)29.30 "Hg (Feb 10, 4:45 AM)
Average48 °F81%30.09 "Hg
* Reported Jan 28 5:45 AM — Feb 12 5:45 AM, San Marino, Weather by CustomWeather, © 2016

Note: Actual official high and low records may vary slightly from our data, if they occured in-between our weather recording intervals... More about our weather records

Advertising

San Marino Weather History for the Previous 24 Hours

 ConditionsComfort  
Time TempWeatherWind HumidityBarometerVisibility
5:45 AM
Fri, Feb 12
46 °FPassing clouds.3 mph87%29.71 "HgN/A
5:15 AM46 °FPassing clouds.8 mph87%29.74 "HgN/A
4:45 AM46 °FPassing clouds.7 mph87%29.74 "HgN/A
4:15 AM46 °FPartly cloudy.7 mph87%29.77 "HgN/A
3:45 AM46 °FPassing clouds.8 mph87%29.77 "HgN/A
3:15 AM46 °FPassing clouds.5 mph87%29.77 "HgN/A
2:45 AM46 °FPassing clouds.6 mph87%29.77 "HgN/A
2:15 AM46 °FPassing clouds.6 mph87%29.77 "HgN/A
1:45 AM46 °FPassing clouds.7 mph82%29.77 "HgN/A
1:15 AM46 °FPassing clouds.5 mph82%29.77 "HgN/A
12:15 AM43 °FClear.5 mph87%29.80 "Hg10 mi
11:45 PM
Thu, Feb 11
39 °FClear.No wind93%29.80 "Hg10 mi
10:15 PM37 °FClear.1 mph93%29.83 "Hg10 mi
9:45 PM37 °FClear.2 mph93%29.80 "Hg10 mi
9:15 PM39 °FClear.2 mph87%29.80 "Hg10 mi
8:45 PM39 °FClear.3 mph87%29.80 "Hg10 mi
8:15 PM41 °FClear.5 mph87%29.80 "Hg10 mi
7:45 PM41 °FClear.1 mph87%29.80 "Hg10 mi
7:15 PM41 °FClear.2 mph87%29.80 "Hg10 mi
6:45 PM45 °FClear.2 mph76%29.80 "Hg10 mi
6:15 PM46 °FClear.6 mph66%29.80 "Hg10 mi
5:45 PM48 °FClear.2 mph66%29.80 "Hg10 mi
5:15 PM50 °FSunny.5 mph54%29.77 "Hg10 mi
4:45 PM52 °FSunny.3 mph50%29.77 "Hg10 mi
4:15 PM52 °FSunny.No wind50%29.77 "Hg10 mi
3:45 PM50 °FSunny.No wind58%29.77 "Hg10 mi
3:15 PM50 °FSunny.2 mph54%29.77 "Hg10 mi
2:45 PM50 °FSunny.5 mph54%29.77 "Hg10 mi
2:15 PM50 °FSunny.7 mph54%29.77 "Hg10 mi
1:45 PM50 °FSunny.8 mph58%29.74 "Hg10 mi
1:15 PM52 °FSunny.7 mph54%29.80 "Hg10 mi
12:45 PM50 °FSunny.8 mph58%29.77 "Hg10 mi
12:15 PM50 °FSunny.7 mph58%29.77 "Hg10 mi
11:45 AM50 °FSunny.7 mph50%29.77 "Hg10 mi
11:15 AM50 °FSunny.9 mph50%29.77 "Hg10 mi
10:45 AM48 °FSunny.9 mph54%29.77 "Hg10 mi
10:15 AM48 °FSunny.8 mph54%29.77 "Hg10 mi
9:45 AM46 °FSunny.8 mph71%29.74 "Hg10 mi
9:15 AM45 °FSunny.7 mph76%29.74 "Hg10 mi
8:45 AM37 °FSunny.No wind100%29.74 "Hg10 mi
8:15 AM36 °FSunny.5 mph100%29.71 "Hg10 mi
7:45 AM36 °FSunny.1 mph100%29.71 "Hg10 mi
7:15 AM36 °FSunny.No wind100%29.71 "Hg10 mi
Weather by CustomWeather, © 2016

See weather overviewHow to use our weather pages